KPCZ

Details ICAO KPCZ (PCZ)
Name Waupaca Muni
Region United States
Timezone America/Chicago (UTC-5.0)
Plans Departing 0
Arriving 2
Stats Elevation 826 ft / 252 m (AMSL)
Location 44.332920° -89.017376°
Runways 3
Magnetic Variation 3.237° W
Sunrise 2018-05-21 10:24:24 UTC / 2018-05-21 05:24:24 Local
Sunset 2018-05-22 01:23:48 UTC / 2018-05-21 20:23:48 Local
Advertisement - Login to hide

Runways

ID Width Length Bearing (true) Bearing (mag) Surface Threshold Offset Overrun Length
06 110 ft / 34 m 1,534 ft / 467 m 55.82° 59.06° Grass 0 ft / 0 m 300 ft / 91 m
10 100 ft / 30 m 5,187 ft / 1,581 m 93.45° 96.69° Asphalt 0 ft / 0 m 0 ft / 0 m
13 75 ft / 23 m 3,895 ft / 1,187 m 123.92° 127.16° Asphalt 0 ft / 0 m 0 ft / 0 m
24 110 ft / 34 m 1,534 ft / 467 m 235.82° 239.06° Grass 0 ft / 0 m 0 ft / 0 m
28 100 ft / 30 m 5,187 ft / 1,581 m 273.46° 276.70° Asphalt 0 ft / 0 m 0 ft / 0 m
31 75 ft / 23 m 3,895 ft / 1,187 m 303.93° 307.17° Asphalt 0 ft / 0 m 0 ft / 0 m

Map

Weather


0- 5 10 15 20 25 30 35+ Temperature / ° C

Clouds and Precipitation
Forecast for 2018-05-21 18:00 UTC. Updated 24 minutes ago

Ground ~20,000 ft ~40,000 ft Winds

METAR

KPCZ 211735Z AUTO 09006KT 10SM OVC026 16/11 A3014 RMK AO2 T01570109

TAF

Not found

Frequencies

Recorded 118.62 MHz AWOS 3
Approach 124.40 MHz MINNEAPOLIS CNTR
Unicom 122.80 MHz CTAF/UNICOM
Warning: Do not use this data for real-world aviation or navigation. No guarantee of current accuracy is given.